Location: Lourdes
(43.1000°N, 0.0500°W)
Time: 18:13:07
(UTC+00:00)

Cosmos 773 Rocket - Visible Passes

Search period start: 12 April 2021 00:00
Search period end: 22 April 2021 00:00
Orbit: 745 x 777 km, 74.1° (Epoch: 11 April)

Date Brightness Start Highest point End Pass type
(mag) Time Alt. Az. Time Alt. Az. Time Alt. Az.
12 Apr 4.3 02:12:13 10° NNW 02:17:28 62° ENE 02:17:28 62° ENE visible
12 Apr 5.7 03:55:31 10° WNW 03:57:31 16° WNW 03:57:31 16° WNW visible
13 Apr 5.3 01:33:20 10° N 01:38:13 36° ENE 01:38:14 36° ENE visible
13 Apr 5.3 03:15:27 10° NW 03:18:19 25° WNW 03:18:19 25° WNW visible
14 Apr 6.0 00:54:43 10° N 00:58:50 22° ENE 00:59:11 22° ENE visible
14 Apr 4.9 02:35:56 10° NNW 02:39:15 36° NW 02:39:15 36° NW visible
15 Apr 6.5 00:16:35 10° NNE 00:19:18 14° NE 00:20:12 13° ENE visible
15 Apr 4.8 01:56:41 10° NNW 02:00:18 45° NNW 02:00:18 45° NNW visible
16 Apr 5.2 01:17:40 10° N 01:21:25 40° NNE 01:21:25 40° NNE visible
16 Apr 6.0 03:00:29 10° NW 03:01:30 14° WNW 03:01:30 14° WNW visible
17 Apr 5.7 00:38:52 10° N 00:42:37 29° NE 00:42:37 29° NE visible
17 Apr 5.7 02:20:40 10° NW 02:22:43 22° NW 02:22:43 22° NW visible
18 Apr 6.2 00:00:22 10° N 00:03:52 19° NE 00:03:52 19° NE visible
18 Apr 5.4 01:41:15 10° NNW 01:43:57 30° NW 01:43:57 30° NW visible
18 Apr 6.6 23:22:37 10° NNE 23:24:32 12° NE 23:25:10 12° NE visible
19 Apr 5.3 01:02:06 10° NNW 01:05:15 36° N 01:05:15 36° N visible
20 Apr 5.5 00:23:10 10° N 00:26:35 34° NNE 00:26:35 34° NNE visible
20 Apr 6.1 02:05:35 10° NW 02:06:41 15° NW 02:06:41 15° NW visible
20 Apr 5.9 23:44:26 10° N 23:47:57 25° NE 23:47:57 25° NE visible
21 Apr 5.8 01:25:56 10° NNW 01:28:03 23° NW 01:28:03 23° NW visible
21 Apr 6.2 23:06:06 10° NNE 23:09:21 16° NE 23:09:21 16° NE visible
